Location: Plum
(40.5000°N, 79.7500°W)
Time: 00:58:36
(UTC-04:00)

MOZ.5/SAFIR/RUBIN 5/SL-8 - Visible Passes

Search period start: 30 July 2014 00:00
Search period end: 09 August 2014 00:00
Orbit: 681 x 708 km, 97.8° (Epoch: 29 July)

Date Brightness Start Highest point End Pass type
(mag) Time Alt. Az. Time Alt. Az. Time Alt. Az.
30 Jul 7.5 21:15:36 10° NW 21:17:29 12° WNW 21:19:22 10° W visible
01 Aug 6.9 05:44:17 10° ESE 05:47:44 20° ENE 05:51:12 10° NNE visible
01 Aug 7.1 20:57:45 10° NNW 21:00:51 18° WNW 21:03:57 10° WSW visible
03 Aug 7.2 05:28:35 10° E 05:31:05 14° ENE 05:33:35 10° NNE visible
04 Aug 7.7 21:23:31 10° NW 21:24:04 10° WNW 21:24:37 10° WNW visible
06 Aug 6.7 05:50:36 10° ESE 05:54:21 24° ENE 05:58:08 10° NNE visible
06 Aug 7.2 21:04:50 10° NNW 21:07:27 15° WNW 21:10:03 10° W visible
08 Aug 7.1 05:34:41 10° ESE 05:37:41 17° ENE 05:40:41 10° NNE visible
